W6MAF Weather Reports


Display with metric or nautical units.
time (UTC)temp
F
wind
direction
speed
MPH
gust
MPH
rain 1hr
in
rain 24hr
in
rain mn
in
humidity
%
barometer
mb
20260902095323 58 222 0.0 2.0 0.00 0.00 0.00 16
20260902094826 58 186 1.0 0.0 0.00 0.00 0.00 15
20260902094325 58 229 0.0 0.0 0.00 0.00 0.00 15
20260902093827 58 229 0.0 0.0 0.00 0.00 0.00 15
20260902093329 58 180 1.0 0.0 0.00 0.00 0.00 14
20260902092831 59 193 1.0 0.0 0.00 0.00 0.00 13
20260902092334 59 238 0.0 0.0 0.00 0.00 0.00 12
20260902091836 59 238 1.0 0.0 0.00 0.00 0.00 12
20260902091335 60 210 0.0 0.0 0.00 0.00 0.00 11
20260902090837 60 153 2.0 1.0 0.00 0.00 0.00 12
20260902090339 60 167 3.0 0.0 0.00 0.00 0.00 11
20260902085841 61 174 2.0 2.0 0.00 0.00 0.00 12
20260902085343 61 180 4.0 2.0 0.00 0.00 0.00 13
20260902084846 61 183 14.0 13.0 0.00 0.00 0.00 14
20260902084345 61 194 17.0 18.0 0.00 0.00 0.00 13
20260902083847 61 167 16.0 16.0 0.00 0.00 0.00 13
20260902083350 61 166 14.0 20.0 0.00 0.00 0.00 13
20260902082852 61 184 15.0 16.0 0.00 0.00 0.00 13
20260902082354 61 180 17.0 17.0 0.00 0.00 0.00 13
20260902081856 61 187 11.0 15.0 0.00 0.00 0.00 13
20260902081355 61 183 3.0 3.0 0.00 0.00 0.00 12
20260902080857 61 177 1.0 0.0 0.00 0.00 0.00 12
20260902080400 61 176 3.0 13.0 0.00 0.00 0.00 12
20260902075902 61 153 0.0 0.0 0.00 0.00 0.00 12
20260902075404 61 146 0.0 0.0 0.00 0.00 0.00 12
20260902074907 61 146 0.0 0.0 0.00 0.00 0.00 12
20260902074406 62 146 0.0 0.0 0.00 0.00 0.00 12
20260902073908 62 174 11.0 12.0 0.00 0.00 0.00 12
20260902073410 62 172 12.0 15.0 0.00 0.00 0.00 13
20260902072913 62 177 12.0 13.0 0.00 0.00 0.00 13
20260902072416 62 191 11.0 15.0 0.00 0.00 0.00 13
20260902071917 62 159 15.0 12.0 0.00 0.00 0.00 13
20260902071417 62 166 13.0 11.0 0.00 0.00 0.00 13
20260902071153 62 179 14.0 15.0 0.00 0.00 0.00 12
20260902070919 62 179 14.0 15.0 0.00 0.00 0.00 12
20260902070421 62 166 15.0 13.0 0.00 0.00 0.00 12
20260902065923 62 186 13.0 13.0 0.00 0.00 0.00 13
20260902065425 62 190 13.0 13.0 0.00 0.00 0.00 13
20260902064928 62 177 13.0 10.0 0.00 0.00 0.00 14
20260902064427 62 167 12.0 15.0 0.00 0.00 0.00 15
20260902063929 61 173 9.0 6.0 0.00 0.00 0.00 16
20260902063431 62 135 5.0 0.0 0.00 0.00 0.00 17
20260902062934 62 105 3.0 3.0 0.00 0.00 0.00 18
20260902062436 62 167 5.0 7.0 0.00 0.00 0.00 19
20260902061938 62 166 9.0 8.0 0.00 0.00 0.00 20
20260902060940 62 159 8.0 6.0 0.00 0.00 0.00 22
20260902060442 62 152 10.0 10.0 0.00 0.00 0.00 24
20260902055944 63 156 12.0 14.0 0.00 0.00 0.00 25
20260902055446 63 166 12.0 13.0 0.00 0.00 0.00 24
20260902054949 63 167 14.0 7.0 0.00 0.00 0.00 24
20260902054448 63 153 8.0 14.0 0.00 0.00 0.00 23
20260902053950 63 158 9.0 15.0 0.00 0.00 0.00 22
20260902053452 63 173 12.0 11.0 0.00 0.00 0.00 20
20260902052955 63 179 10.0 6.0 0.00 0.00 0.00 18
20260902052457 64 177 10.0 12.0 0.00 0.00 0.00 18
20260902051959 64 172 11.0 10.0 0.00 0.00 0.00 17
20260902051459 64 183 12.0 9.0 0.00 0.00 0.00 18
20260902051001 64 172 11.0 7.0 0.00 0.00 0.00 18
20260902050503 64 163 12.0 13.0 0.00 0.00 0.00 18
20260902045507 64 166 15.0 15.0 0.00 0.00 0.00 20
20260902044509 63 172 13.0 15.0 0.00 0.00 0.00 22
20260902044011 63 142 14.0 14.0 0.00 0.00 0.00 22
20260902043513 63 160 12.0 14.0 0.00 0.00 0.00 23
20260902043016 63 163 11.0 8.0 0.00 0.00 0.00 24
20260902042518 63 150 12.0 13.0 0.00 0.00 0.00 26
20260902042020 63 165 12.0 12.0 0.00 0.00 0.00 27
20260902041519 63 158 8.0 11.0 0.00 0.00 0.00 27
20260902041022 63 174 11.0 8.0 0.00 0.00 0.00 28
20260902040524 63 173 14.0 9.0 0.00 0.00 0.00 28
20260902040026 63 166 13.0 16.0 0.00 0.00 0.00 29
20260902035528 63 170 13.0 13.0 0.00 0.00 0.00 29
20260902035031 64 167 11.0 14.0 0.00 0.00 0.00 29
20260902034530 64 158 15.0 13.0 0.00 0.00 0.00 29
20260902033534 64 183 16.0 10.0 0.00 0.00 0.00 29
20260902033037 64 169 15.0 20.0 0.00 0.00 0.00 28
20260902032539 64 173 13.0 9.0 0.00 0.00 0.00 28
20260902032041 64 166 13.0 14.0 0.00 0.00 0.00 28
20260902031540 64 160 12.0 12.0 0.00 0.00 0.00 28
20260902031042 65 170 16.0 11.0 0.00 0.00 0.00 27
20260902030545 65 167 15.0 12.0 0.00 0.00 0.00 26
20260902030047 65 156 12.0 17.0 0.00 0.00 0.00 25
20260902025550 65 149 13.0 12.0 0.00 0.00 0.00 24
20260902025052 66 156 16.0 11.0 0.00 0.00 0.00 25
20260902024551 66 165 18.0 19.0 0.00 0.00 0.00 25
20260902024053 66 155 14.0 13.0 0.00 0.00 0.00 24
20260902023555 66 169 14.0 13.0 0.00 0.00 0.00 24
20260902023057 67 165 15.0 14.0 0.00 0.00 0.00 23
20260902022600 67 177 14.0 11.0 0.00 0.00 0.00 22
20260902022102 68 159 11.0 12.0 0.00 0.00 0.00 20
20260902021602 68 149 8.0 9.0 0.00 0.00 0.00 19
20260902021103 68 165 11.0 11.0 0.00 0.00 0.00 18
20260902020606 69 179 11.0 7.0 0.00 0.00 0.00 17
20260902020108 69 167 8.0 6.0 0.00 0.00 0.00 17
20260902015610 70 166 12.0 9.0 0.00 0.00 0.00 16
20260902015112 70 129 12.0 9.0 0.00 0.00 0.00 15
20260902014611 71 160 7.0 0.0 0.00 0.00 0.00 14
20260902014114 71 114 7.0 6.0 0.00 0.00 0.00 13
20260902013616 72 138 8.0 5.0 0.00 0.00 0.00 13
20260902013118 72 134 8.0 9.0 0.00 0.00 0.00 11
20260902012620 73 162 9.0 9.0 0.00 0.00 0.00 6
20260902012123 73 146 11.0 13.0 0.00 0.00 0.00 10
20260902011622 74 174 8.0 10.0 0.00 0.00 0.00 8
20260902011126 74 149 13.0 18.0 0.00 0.00 0.00 6
20260902010626 75 155 6.0 0.0 0.00 0.00 0.00 5
20260902010129 75 191 11.0 16.0 0.00 0.00 0.00 5
20260902005631 75 172 18.0 12.0 0.00 0.00 0.00 5
20260902005133 75 169 12.0 10.0 0.00 0.00 0.00 5
20260902004632 76 170 13.0 17.0 0.00 0.00 0.00 5
20260902004134 76 176 11.0 8.0 0.00 0.00 0.00 5
20260902003637 76 172 14.0 20.0 0.00 0.00 0.00 5
20260902003139 76 158 15.0 17.0 0.00 0.00 0.00 4
20260902002718 77 187 11.0 15.0 0.00 0.00 0.00 4
20260902002641 77 187 11.0 15.0 0.00 0.00 0.00 4
20260902002145 77 195 21.0 14.0 0.00 0.00 0.00 4
20260902001643 77 222 20.0 16.0 0.00 0.00 0.00 4
20260902001145 77 191 21.0 17.0 0.00 0.00 0.00 4
20260902000647 77 190 22.0 24.0 0.00 0.00 0.00 4
20260902000149 77 193 17.0 22.0 0.00 0.00 0.00 4
20260901235652 77 179 21.0 18.0 0.00 0.00 0.00 4
20260901235154 77 183 21.0 22.0 0.00 0.00 0.00 4
20260901234155 77 176 24.0 23.0 0.00 0.00 0.00 5
20260901233657 77 191 25.0 22.0 0.00 0.00 0.00 5
20260901233200 77 181 14.0 17.0 0.00 0.00 0.00 5
20260901232702 77 190 20.0 25.0 0.00 0.00 0.00 5
20260901232204 77 179 22.0 23.0 0.00 0.00 0.00 5
20260901231704 77 176 24.0 28.0 0.00 0.00 0.00 5
20260901231205 77 186 19.0 27.0 0.00 0.00 0.00 5
20260901230708 78 173 23.0 19.0 0.00 0.00 0.00 5
20260901230211 78 204 22.0 21.0 0.00 0.00 0.00 5
20260901225712 78 198 22.0 11.0 0.00 0.00 0.00 5
20260901225214 78 165 22.0 21.0 0.00 0.00 0.00 5
20260901224714 77 156 21.0 22.0 0.00 0.00 0.00 6
20260901224216 78 191 20.0 23.0 0.00 0.00 0.00 5
20260901223718 78 153 19.0 22.0 0.00 0.00 0.00 5
20260901223220 78 195 25.0 21.0 0.00 0.00 0.00 5
20260901222722 78 197 19.0 25.0 0.00 0.00 0.00 5
20260901222225 78 186 24.0 19.0 0.00 0.00 0.00 5
20260901221724 78 198 18.0 19.0 0.00 0.00 0.00 5
20260901221226 78 191 21.0 22.0 0.00 0.00 0.00 5
20260901220728 78 183 16.0 17.0 0.00 0.00 0.00 5
20260901220231 78 197 24.0 29.0 0.00 0.00 0.00 5
20260901215733 78 183 17.0 19.0 0.00 0.00 0.00 5
20260901215235 78 184 19.0 15.0 0.00 0.00 0.00 5
20260901214734 78 170 19.0 2.0 0.00 0.00 0.00 5
20260901214236 78 211 17.0 14.0 0.00 0.00 0.00 5
20260901213739 78 201 23.0 21.0 0.00 0.00 0.00 5
20260901213401 78 176 24.0 25.0 0.00 0.00 0.00 5
20260901213241 78 176 24.0 25.0 0.00 0.00 0.00 5
20260901212743 79 167 20.0 27.0 0.00 0.00 0.00 5
20260901212245 79 205 20.0 24.0 0.00 0.00 0.00 5
20260901211744 78 193 17.0 26.0 0.00 0.00 0.00 5
20260901211247 78 200 17.0 12.0 0.00 0.00 0.00 5
20260901210749 78 195 22.0 19.0 0.00 0.00 0.00 5
20260901210251 78 159 19.0 16.0 0.00 0.00 0.00 5
20260901205753 79 187 20.0 22.0 0.00 0.00 0.00 5
20260901205256 79 187 19.0 15.0 0.00 0.00 0.00 5
20260901204755 79 188 20.0 26.0 0.00 0.00 0.00 5
20260901204257 79 211 22.0 16.0 0.00 0.00 0.00 5
20260901203759 79 181 19.0 25.0 0.00 0.00 0.00 5
20260901203301 79 201 12.0 17.0 0.00 0.00 0.00 5
20260901202837 79 194 21.0 16.0 0.00 0.00 0.00 5
20260901202804 79 194 21.0 16.0 0.00 0.00 0.00 5
20260901202306 79 210 14.0 12.0 0.00 0.00 0.00 5
20260901201805 78 197 14.0 21.0 0.00 0.00 0.00 5
20260901201307 78 191 20.0 20.0 0.00 0.00 0.00 5
20260901200810 78 222 13.0 13.0 0.00 0.00 0.00 5
20260901200312 78 207 11.0 24.0 0.00 0.00 0.00 5
20260901195814 78 229 16.0 22.0 0.00 0.00 0.00 5
20260901195316 78 186 17.0 17.0 0.00 0.00 0.00 5
20260901194815 78 201 23.0 19.0 0.00 0.00 0.00 5
20260901194318 78 187 18.0 26.0 0.00 0.00 0.00 5
20260901193820 78 188 19.0 13.0 0.00 0.00 0.00 5
20260901193322 78 170 15.0 14.0 0.00 0.00 0.00 5
20260901192824 78 188 18.0 11.0 0.00 0.00 0.00 5
20260901192327 78 183 11.0 19.0 0.00 0.00 0.00 4
20260901191826 78 184 16.0 13.0 0.00 0.00 0.00 5
20260901191328 77 166 15.0 13.0 0.00 0.00 0.00 5
20260901190831 77 186 14.0 13.0 0.00 0.00 0.00 5
20260901190333 76 183 14.0 19.0 0.00 0.00 0.00 5
20260901185835 76 159 12.0 15.0 0.00 0.00 0.00 5
20260901185337 76 181 13.0 11.0 0.00 0.00 0.00 5
20260901184836 76 166 18.0 16.0 0.00 0.00 0.00 6
20260901184338 75 166 12.0 12.0 0.00 0.00 0.00 6
20260901183841 75 183 20.0 11.0 0.00 0.00 0.00 6
20260901183343 75 160 14.0 14.0 0.00 0.00 0.00 6
20260901182845 75 191 16.0 13.0 0.00 0.00 0.00 5
20260901182348 75 141 15.0 9.0 0.00 0.00 0.00 5
20260901181847 75 149 15.0 17.0 0.00 0.00 0.00 5
20260901181349 75 167 12.0 17.0 0.00 0.00 0.00 5
20260901180851 75 180 16.0 11.0 0.00 0.00 0.00 5
20260901180353 75 177 18.0 18.0 0.00 0.00 0.00 5
20260901175856 75 183 14.0 17.0 0.00 0.00 0.00 5
20260901175358 75 184 14.0 19.0 0.00 0.00 0.00 5
20260901174857 74 204 14.0 14.0 0.00 0.00 0.00 5
20260901174359 74 208 12.0 16.0 0.00 0.00 0.00 5
20260901173942 74 163 9.0 10.0 0.00 0.00 0.00 5
20260901173902 74 163 9.0 10.0 0.00 0.00 0.00 5
20260901173404 74 200 15.0 0.0 0.00 0.00 0.00 5
20260901172906 75 100 0.0 0.0 0.00 0.00 0.00 5
20260901172409 75 177 7.0 0.0 0.00 0.00 0.00 5
20260901171908 75 208 0.0 0.0 0.00 0.00 0.00 5
20260901171410 75 208 0.0 0.0 0.00 0.00 0.00 5
20260901170912 74 208 0.0 0.0 0.00 0.00 0.00 5
20260901170415 73 208 0.0 0.0 0.00 0.00 0.00 6
20260901165952 73 181 0.0 0.0 0.00 0.00 0.00 5
20260901165917 73 181 0.0 0.0 0.00 0.00 0.00 5
20260901165419 73 166 0.0 0.0 0.00 0.00 0.00 5
20260901164918 73 166 1.0 0.0 0.00 0.00 0.00 6
20260901164420 72 184 0.0 0.0 0.00 0.00 0.00 6
20260901163923 72 184 6.0 0.0 0.00 0.00 0.00 6
20260901163427 71 146 9.0 9.0 0.00 0.00 0.00 6
20260901162927 71 179 9.0 0.0 0.00 0.00 0.00 7
20260901162430 71 167 3.0 16.0 0.00 0.00 0.00 7
20260901161929 71 179 0.0 0.0 0.00 0.00 0.00 8
20260901161431 70 179 0.0 0.0 0.00 0.00 0.00 8
20260901160934 70 129 0.0 0.0 0.00 0.00 0.00 10
20260901160436 70 129 0.0 0.0 0.00 0.00 0.00 11
20260901155938 69 129 0.0 0.0 0.00 0.00 0.00 13
20260901155440 69 129 0.0 0.0 0.00 0.00 0.00 12
20260901154939 68 129 0.0 0.0 0.00 0.00 0.00 12
20260901154442 68 129 0.0 0.0 0.00 0.00 0.00 13
20260901153944 68 129 0.0 0.0 0.00 0.00 0.00 13
20260901153446 68 129 0.0 0.0 0.00 0.00 0.00 14
20260901152948 67 172 9.0 0.0 0.00 0.00 0.00 13
20260901152452 67 153 1.0 0.0 0.00 0.00 0.00 14
20260901151950 67 183 10.0 12.0 0.00 0.00 0.00 14
20260901151452 67 195 10.0 7.0 0.00 0.00 0.00 13
20260901150954 67 195 0.0 0.0 0.00 0.00 0.00 13
20260901150457 66 195 0.0 0.0 0.00 0.00 0.00 14
20260901145959 66 195 7.0 0.0 0.00 0.00 0.00 15
20260901145501 66 152 0.0 0.0 0.00 0.00 0.00 15
20260901145001 65 177 0.0 0.0 0.00 0.00 0.00 16
20260901144504 65 190 6.0 11.0 0.00 0.00 0.00 16
20260901144005 65 180 13.0 12.0 0.00 0.00 0.00 17
20260901143507 64 179 8.0 0.0 0.00 0.00 0.00 17
20260901143009 64 174 0.0 0.0 0.00 0.00 0.00 19
20260901142512 64 191 11.0 10.0 0.00 0.00 0.00 20
20260901141513 63 181 9.0 11.0 0.00 0.00 0.00 22
20260901141015 63 187 8.0 8.0 0.00 0.00 0.00 23
20260901140518 62 181 12.0 12.0 0.00 0.00 0.00 22
20260901140020 62 195 8.0 6.0 0.00 0.00 0.00 23
20260901135522 61 190 9.0 9.0 0.00 0.00 0.00 24
20260901135021 61 191 9.0 14.0 0.00 0.00 0.00 25
20260901134524 60 193 11.0 10.0 0.00 0.00 0.00 27
20260901134026 60 186 13.0 13.0 0.00 0.00 0.00 29
20260901133528 59 203 14.0 15.0 0.00 0.00 0.00 33
20260901133031 59 198 16.0 20.0 0.00 0.00 0.00 34
20260901132533 58 205 15.0 12.0 0.00 0.00 0.00 38
20260901132033 58 200 10.0 15.0 0.00 0.00 0.00 42
20260901131534 57 188 16.0 18.0 0.00 0.00 0.00 43
20260901131037 57 188 15.0 12.0 0.00 0.00 0.00 42
20260901130041 58 211 14.0 14.0 0.00 0.00 0.00 42
20260901125543 58 205 14.0 10.0 0.00 0.00 0.00 41
20260901125043 58 217 13.0 12.0 0.00 0.00 0.00 40
20260901124545 58 214 13.0 14.0 0.00 0.00 0.00 40
20260901124047 57 208 12.0 11.0 0.00 0.00 0.00 41
20260901123550 57 211 13.0 13.0 0.00 0.00 0.00 41
20260901123052 57 204 11.0 9.0 0.00 0.00 0.00 40
20260901122554 57 177 11.0 8.0 0.00 0.00 0.00 43
20260901122053 58 219 10.0 12.0 0.00 0.00 0.00 42
20260901121555 58 222 8.0 9.0 0.00 0.00 0.00 40
20260901121058 59 207 8.0 9.0 0.00 0.00 0.00 39
20260901120600 59 226 6.0 6.0 0.00 0.00 0.00 36
20260901115604 61 228 6.0 5.0 0.00 0.00 0.00 31
20260901115104 61 197 2.0 3.0 0.00 0.00 0.00 24
20260901114606 61 181 6.0 11.0 0.00 0.00 0.00 24
20260901114108 62 148 0.0 0.0 0.00 0.00 0.00 26
20260901113610 62 148 0.0 0.0 0.00 0.00 0.00 23
20260901113113 62 148 0.0 0.0 0.00 0.00 0.00 22
20260901112615 62 148 2.0 0.0 0.00 0.00 0.00 23
20260901112114 61 170 9.0 10.0 0.00 0.00 0.00 24
20260901111616 60 186 8.0 11.0 0.00 0.00 0.00 26
20260901111119 60 191 11.0 8.0 0.00 0.00 0.00 29
20260901110621 60 193 10.0 7.0 0.00 0.00 0.00 31
20260901110123 59 183 9.0 8.0 0.00 0.00 0.00 34
20260901105626 59 195 11.0 9.0 0.00 0.00 0.00 36
20260901105125 60 186 11.0 11.0 0.00 0.00 0.00 38
20260901104627 60 193 12.0 9.0 0.00 0.00 0.00 37
20260901104129 60 211 11.0 9.0 0.00 0.00 0.00 37
20260901103631 60 181 11.0 12.0 0.00 0.00 0.00 36
20260901103134 60 207 9.0 11.0 0.00 0.00 0.00 35
20260901102636 60 201 10.0 13.0 0.00 0.00 0.00 35
20260901102135 60 201 9.0 9.0 0.00 0.00 0.00 35
20260901101638 59 194 11.0 7.0 0.00 0.00 0.00 35
20260901101140 59 198 8.0 8.0 0.00 0.00 0.00 36
20260901100642 60 214 7.0 7.0 0.00 0.00 0.00 35
20260901095646 61 205 6.0 8.0 0.00 0.00 0.00 31